Showing default

SECOR 3, 1208

Orbit data source: Space-Track

SECOR 3, 1208 is an American payload satellite in LEO that was launched on Tue, 09 Mar 1965 UTC via a THOR SLV-2 AGENA D launch vehicle from the Air Force Western Test Range (AFWTR). Payload-class satellites include a variety of spacecraft equipped with specific instruments for various scientific and technological missions. These include communications satellites like Starlink; space stations such as the ISS; scientific satellites like the Hubble; Earth observation satellites from companies like Planet Labs, Umbra, and HawkEye 360; GPS; miniature CubeSats for education and research; and military/defense satellites.

Loading next visibility...
Identifier
1208, 1965-016E
Orbit
LEO
Country
Flag of USUS
Related business
Manufacturer
ITT
Mission
Defense Geodetic
Bus & Motor
SECOR, Unknown motor
Mass
18 kg wet, 18 kg dry
Launch date (UTC)
1965-03-09 (61 years ago)
Launch vehicle
THOR SLV-2 AGENA D
Launch site
Air Force Western Test Range (AFWTR)
Object type
Payload
Rocket body
Debris
Shape & HBR
Box, 0.2 m
Radar Cross Section
0.105 m², Medium (>0.1 m² and < 1m²)

Expand to show TLE details & history
Last TLE update: 13 hours ago

TLE from 13 hours ago
0 SECOR 3
1 01208U 65016E   25259.10343959  .00000027  00000-0  57687-4 0  9992
2 01208  70.0796  47.8482 0017463  84.9133  26.6964 13.96017436 80915
Epoch: 2025-09-16T02:28Z
TLE epoch observation values (Epoch: 2025-09-16T02:28:57.18Z)
Latitude
60.98183°
Longitude
154.77977°
Altitude
906.063 km
Speed
7.411 km/s
True Right ascension
12h 29m 15s
True Declination
60° 50' 19"
Sunlit
Object was in daylight at epoch
Visualization orbit readout
Latitude
Unknown
Longitude
Unknown
Altitude
Unknown
Speed
Unknown
Apparent Right ascension
Unknown
Apparent Declination
Unknown
Sunlit
N/A
Visualization observer readout
Local Sidereal Time
07:47:53
Azimuth
Unknown
Elevation
Unknown
Doppler factor
Unknown
Orbital elements
Apogee altitude
918.374 km
Perigee altitude
892.934 km
Semi-major axis
7,283.791 km
Eccentricity
0.00175
Inclination
70.0796°
RAAN
47.8482°
Arg. of periapsis
84.9133°
True anomaly
26.78648°
Mean anomaly
26.6964°
Eccentric anomaly
26.74142°
Mean motion
3.49146 °/min
Orbital period
103.11 mins
BSTAR
0.000057687
Loading maneuver chart data...
Computing Atmospheric mass density...
Loading historical data...
Loading historical data...
Loading historical data...
Loading historical data...
Loading historical data...
Loading historical data...
Loading historical data...

Documentation

Showing up to 5 results
|